STARLINK-32459, 61715

Orbit data source: Space-Track

STARLINK-32459, 61715 is a payload satellite owned by SpaceX/Seattle (US) in LEO that was launched on Wed, 30 Oct 2024 UTC via an FALCON 9 launch vehicle from the Air Force Eastern Test Range (AFETR). Payload-class satellites include a variety of spacecraft equipped with specific instruments for various scientific and technological missions. These include communications satellites like Starlink; space stations such as the ISS; scientific satellites like the Hubble; Earth observation satellites from companies like Planet Labs, Umbra, and HawkEye 360; GPS; miniature CubeSats for education and research; and military/defense satellites.

Loading next visibility...
Identifier
61715, 2024-196J
Orbit
LEO
Last TLE update
1 day ago
Origin
Manufacturer
SpaceX/Seattle
Mission
Operational Commercial Communications
Bus & Motor
STARLINK V2M, Unknown motor
Mass
730 kg wet, ~700 kg dry
Launch date (UTC)
2024-10-30 (6 months ago)
Launch vehicle
FALCON 9
Launch site
Air Force Eastern Test Range (AFETR)
Object type
Payload
Rocket body
Debris
Shape & HBR
Box + 2 Pan, 29 m
Radar Cross Section
36.964 m², Large (>1 m²)

Expand to show TLE details & history

TLE from 1 day ago
0 STARLINK-32459
1 61715U 24196J   25128.57491773  .00000184  00000-0  18337-4 0  9992
2 61715  53.1616  78.4604 0001284  92.6059 267.5089 15.30188183 30355
Epoch: 2025-05-08T13:47Z
Definitive object data (Epoch: 2025-05-08T13:47:52.891Z)
Latitude
-0.00002°
Longitude
4.84655°
Altitude
476.189 km
Speed
7.629 km/s
True Right ascension
05h 13m 50s
True Declination
0° 00' 00"
Sunlit
Object was in daylight at TLE epoch
Visualization TLE readout
Latitude
27.41713°
Longitude
22.39239°
Altitude
476.126 km
Speed
7.632 km/s
Apparent Right ascension
09h 07m 58s
Apparent Declination
-7° 08' 57"
Sunlit
Object is in daylight
Visualization observer readout
Local Sidereal Time
00:46:24
Azimuth
71.332° E
Elevation
-31.373°
Doppler factor
1
Orbital elements
Apogee altitude
476.387 km
Perigee altitude
474.627 km
Semi-major axis
6,853.644 km
Eccentricity
0.0001284
Inclination
53.1616°
RAAN
78.4604°
Arg. of periapsis
92.6059°
True anomaly
267.4942°
Mean anomaly
267.5089°
Eccentric anomaly
267.50155°
Mean motion
3.82526 °/min
BSTAR
0.000018337
Orbital period
94.11 mins
Loading maneuver chart data...
Loading SW <> Apogee altitude chart data...
Loading historical data...
Loading historical data...
Loading historical data...
Loading historical data...
Loading historical data...
Loading historical data...
Loading historical data...

STARLINK-32459 Visibility forecast

Observer location: undefined°, undefined°

Span
Click to sort rows by Start time (UTC) header in descending order
Start Az.
Max El. time (UTC)
Max El. Az.
Max El.
End time (UTC)
End Az.
7 mins2025-05-09 22:52:54.648Z218.196° SW2025-05-09 22:55:54.648Z175.925° S40.475°2025-05-09 22:59:54.648Z55.438° ENE
4 mins2025-05-10 00:32:54.648Z299.715° NW2025-05-10 00:34:54.648Z344.782° N19.895°2025-05-10 00:36:54.648Z21.63° NNE
6 mins2025-05-10 05:28:54.648Z323.097° NNW2025-05-10 05:30:54.648Z6.263° NNE37.567°2025-05-10 05:34:54.648Z115.15° SE
|